Starlink 4264

operational
NORAD ID: 52993 Int'l Des: 2022-076 Owner: SPXS Country: US Constellation: starlink
LEOCIRCULAR

关于 Starlink 4264

正在加载描述...

实时位置

正在加载3D地球...

即将过境

高度历史

Altitude vs Time

uPlot chart will show altitude changes over time

两行轨道根数

1 52993U 22076H 25259.95640431 -.00000876 00000-0 -36945-4 0 9994
2 52993 53.2167 154.0390 0001404 108.3913 251.7232 15.08833755176618
Epoch: Sep 16, 2025 • Age: 17 hours

当前状态

高度 558.8 km
速度 7.58 km/s
星下点 -52.43°S, 169.13°E
发射日期 Jul 7, 2022
运行时间 3.1 years
类型 internet

技术详情

分类 Payload
质量 297.00 kg
干质量 275.00 kg
总质量 297.00 kg
长度 0.20 m
直径 2.80 m
跨度 9.00 m
形状 Box + pan
制造商 SPXS
平台类型 Starlink
阶段状态 In Orbit
所有者/国家 SPXS/US

大型星座

Loading constellations...